Find Starlink 33614

NORAD ID: 63372 Int'l Des: 2025-063 Owner: SPXS Country: US Constellation: starlink operational
LEOCIRCULAR

Live Position

Loading 3D Globe...

About Starlink 33614

Description loading...

Upcoming Passes

Passes for default location (London). Set your location on the main map for personalized predictions.

Altitude History

Loading altitude history...

Two-Line Element Set

1 63372U 25063K 26122.36674052 .00015759 00000-0 54321-3 0 9998
2 63372 53.1589 160.5822 0000979 93.8734 266.2378 15.30191029 63012
Epoch: May 2, 2026 • Age: 26 hours

Current Status

Altitude 480.5 km
Velocity 7.63 km/s
Sub-Earth Point 51.02°N, 107.75°W
Launch Date Mar 26, 2025
Age 1.1 years
Type internet

Technical Details

Classification Payload
Mass 575.00 kg
Dry Mass 530.00 kg
Total Mass 575.00 kg
Length 0.30 m
Diameter 4.10 m
Span 29.00 m
Shape Box + pan
Manufacturer SPXS
Bus Type Starlink V2MO
Phase Status In Orbit
Owner/State SPXS/US

Most Searched